{"data":{"norad_id":37846,"intl_designator":"2011-060A","name":"GSAT0101 (GALILEO-PFM)","alt_names":[],"object_type":"PAYLOAD","status":"ACTIVE","operator":null,"country":"ESA","launch_date":"2011-10-21","launch_site_code":"FRGUI","launch_vehicle":null,"mission":null,"orbit_class":"UNKNOWN","rcs_meters":12.6191,"size_class":null,"mass_kg":null,"dimensions":null,"purposes":["earth_obs","nav"],"wikipedia_slug":null,"has_3d_model":false,"image_url":null,"decayed_at":null,"tle_current":{"epoch":"2026-09-18T02:46:14.546496Z","epoch_age_seconds":220451,"freshness":"STALE","line1":"1 37846U 11060A   26261.11544614 -.00000096  00000+0  00000+0 0  9993","line2":"2 37846  56.9565 339.2412 0000201 333.5692  26.4822  1.70475808 92706","mean_motion":1.70475808,"eccentricity":2.01e-5,"inclination_deg":56.9565,"raan_deg":339.2412,"arg_perigee_deg":333.5692,"mean_anomaly_deg":26.4822,"bstar":0,"rev_number":9270,"period_min":844.69463256628,"perigee_km":23221.378808661,"apogee_km":23222.568733114,"semimajor_km":29600.110770887,"source":"CELESTRAK","updated_at":"2026-09-20T09:00:46.491110Z"}}}